Vorticity
4 4 2 2 2 2 4 11 10 2 8 7 9 16 10 10 7 5 7 11 9 6 15 14 8 5 6 8 6 7 4 2 5 7 6 7 8 8 3 1 6 7 5 4 5 6 7 5 4 5 6 7 7 6 6 6 7 7 7 7 7 7 8 7 7 7 7 8 8 9 7 6 6 6 6 6 7 6 4 4 5 5 6 8 8 9 7 4 3 4 4 5 3 3 5 5 6
5 5 2 1 3 3 -4 4 17 5 5 3 4 14 6 10 15 9 7 10 10 6 7 11 10 5 5 7 7 8 2 0 7 8 9 8 6 7 4 1 5 6 5 4 5 7 6 5 5 6 6 7 7 6 6 7 7 7 8 7 7 7 8 8 7 7 7 8 8 8 7 6 6 7 6 5 6 5 4 5 6 6 6 7 8 8 8 6 4 4 4 4 4 4 4 4 5
5 6 4 -1 1 8 0 -0 12 8 7 4 1 7 2 6 14 10 6 7 9 7 4 6 9 5 5 7 6 6 4 5 9 10 9 5 4 7 5 4 6 5 4 4 6 7 6 5 5 6 7 7 6 7 7 8 7 7 7 7 7 8 8 8 8 7 7 7 7 6 6 7 7 7 6 6 6 4 5 4 5 7 7 6 7 8 9 9 7 7 6 5 5 5 4 4 4
4 5 6 4 -0 2 3 3 6 7 8 8 1 0 1 2 5 7 5 7 7 7 8 5 7 6 4 7 7 8 9 8 9 9 4 4 10 8 4 5 5 4 4 6 6 7 7 6 6 7 7 6 6 7 8 7 7 7 7 7 7 7 8 8 8 8 7 6 5 5 5 6 7 6 7 8 7 6 7 6 7 10 9 6 8 7 7 9 8 9 9 8 7 6 4 4 4
3 2 2 2 3 4 4 4 9 6 2 9 6 1 5 2 -1 4 6 9 6 3 8 5 5 8 6 7 9 11 9 7 10 7 2 7 11 7 6 5 3 4 5 6 6 7 7 6 7 7 7 6 7 7 8 7 6 6 6 6 7 8 9 9 9 8 7 6 6 6 5 6 6 6 7 7 6 5 7 8 8 10 9 8 9 7 7 9 8 9 9 9 9 7 6 5 5
2 1 -1 -0 4 10 6 2 8 6 -0 6 8 5 7 6 -0 2 6 6 5 4 5 5 5 7 8 9 9 9 6 6 8 7 6 8 7 6 6 3 3 5 5 7 6 7 7 7 7 7 7 6 7 8 7 6 6 6 6 7 9 10 9 8 8 8 8 8 7 7 7 6 6 7 7 6 5 4 5 6 5 7 8 6 8 7 8 8 8 9 10 10 9 9 8 7 7
4 3 3 5 2 -2 1 3 4 4 4 5 6 6 6 7 4 2 4 3 7 10 5 5 6 5 6 7 8 7 7 6 4 7 12 9 4 5 4 3 5 5 6 7 6 8 8 7 8 7 6 6 7 7 6 6 6 6 7 10 11 10 9 8 8 9 9 10 10 9 9 8 8 7 7 6 6 6 6 6 6 7 6 6 8 7 8 8 9 10 10 10 9 9 9 9 9
6 6 3 5 7 -1 0 6 3 5 5 4 3 1 4 3 2 3 7 7 7 9 5 5 7 7 6 6 8 7 6 7 5 7 12 8 3 4 3 4 5 4 6 6 7 8 8 8 8 7 6 6 7 6 5 5 6 7 10 12 11 10 10 10 10 11 11 11 11 11 11 10 10 10 9 8 8 8 7 7 7 7 6 7 8 7 8 9 9 10 11 11 11 11 12 11 10
4 7 8 4 6 0 -1 2 1 7 5 10 10 3 7 3 1 3 5 7 6 5 5 5 6 9 7 7 9 7 6 7 7 7 8 7 5 5 4 5 5 4 5 7 8 8 8 9 8 6 6 7 7 6 5 5 7 9 12 12 11 10 11 11 11 11 11 10 9 10 11 11 11 11 11 10 9 9 9 8 8 9 8 8 8 7 8 9 9 10 11 11 11 12 13 13 13
3 1 5 5 11 8 5 6 6 6 5 16 13 2 6 4 6 8 6 7 6 4 4 6 7 9 8 7 9 7 6 5 6 6 6 7 6 6 5 6 5 3 6 7 8 9 9 8 7 6 6 7 6 5 5 6 8 10 11 11 10 10 10 10 10 9 7 7 7 7 7 7 8 9 10 10 11 11 11 10 10 11 11 10 10 9 9 9 9 10 9 9 10 11 12 12 12
4 -0 0 2 14 17 6 6 9 4 5 11 -1 -6 3 6 9 7 7 5 4 7 7 8 6 8 8 6 7 8 8 6 5 5 5 7 6 5 5 7 6 4 7 8 8 10 8 8 7 5 6 7 6 4 6 8 9 11 11 10 10 9 8 8 7 6 5 5 6 6 6 6 6 7 7 8 8 9 9 9 9 10 10 10 10 10 10 10 10 11 10 9 8 9 10 11 10
3 5 7 -0 0 5 2 3 8 4 4 7 0 2 4 5 7 2 7 6 4 8 5 7 6 4 6 6 8 7 8 7 5 5 3 5 6 6 5 6 6 5 8 8 9 10 8 7 6 5 7 7 5 5 7 9 9 9 9 9 8 7 6 5 5 4 5 5 5 5 5 5 5 5 6 6 6 6 6 6 6 6 7 7 8 9 9 9 9 10 11 11 9 8 8 8 9
5 6 6 4 3 2 7 7 5 5 3 3 4 8 3 2 6 3 8 6 6 9 6 10 9 6 4 6 9 7 9 8 7 6 3 4 6 6 4 4 5 6 9 9 9 10 8 7 6 6 7 6 5 5 8 10 9 8 8 7 6 5 5 4 4 4 4 5 5 5 4 4 4 4 5 4 5 4 4 4 4 4 4 4 5 6 6 7 7 8 10 11 11 9 8 7 6
4 5 -1 2 9 -0 6 9 3 5 6 5 4 5 5 4 6 6 7 5 6 7 6 9 10 10 7 7 8 8 11 9 8 5 3 4 3 4 4 4 5 6 9 9 10 10 8 6 5 6 7 6 4 6 9 9 8 7 7 6 5 5 4 4 4 4 4 4 4 3 3 3 4 4 4 4 3 4 4 3 3 3 3 3 3 4 4 5 5 6 8 8 10 10 8 7 6
3 5 0 3 12 6 10 10 5 9 10 8 4 6 8 5 7 7 4 6 8 5 7 9 8 9 8 9 8 7 9 9 9 6 4 4 3 4 4 3 5 9 10 10 11 9 7 6 4 6 7 5 5 7 9 8 7 7 6 5 5 4 4 4 3 4 4 4 3 3 3 3 4 4 4 4 4 4 4 4 4 3 4 4 4 4 4 4 4 4 6 7 8 10 10 9 8
5 4 1 2 8 9 8 4 2 4 7 6 5 7 4 4 8 4 3 9 12 10 9 8 6 9 9 8 9 7 6 8 9 7 6 5 5 4 4 5 5 9 11 10 11 10 7 5 4 6 7 5 5 7 8 8 7 6 5 4 4 4 4 3 3 3 3 3 2 2 2 2 3 3 3 4 4 4 4 4 4 4 4 4 4 4 4 4 4 4 4 6 7 8 10 11 10
5 3 3 3 5 6 4 5 3 -1 2 4 9 9 -0 6 9 1 5 9 13 13 8 7 7 10 10 7 10 9 6 7 8 7 6 4 4 5 5 5 5 7 10 10 11 10 7 5 5 6 6 6 6 7 8 7 6 5 4 4 4 4 4 4 3 3 3 3 2 2 2 3 3 3 3 3 3 4 4 4 4 4 4 4 4 3 4 5 5 4 3 4 6 6 7 9 11
3 4 5 4 6 5 4 7 7 8 9 6 8 7 3 8 7 2 7 9 11 12 6 7 7 7 9 8 9 10 7 7 8 6 5 4 3 5 5 4 5 7 9 9 11 10 6 5 5 6 6 5 7 8 8 6 6 5 4 5 4 5 5 4 3 2 2 2 2 2 2 3 3 3 2 3 3 3 3 4 4 4 4 4 4 4 5 6 6 5 4 4 5 5 5 5 8
4 4 5 5 6 5 7 11 10 7 6 12 7 1 6 5 3 5 6 9 13 11 9 10 8 6 8 6 8 12 10 8 7 6 5 5 3 3 4 3 5 9 10 9 10 9 5 5 5 6 7 5 7 8 8 6 5 4 4 4 4 5 5 4 4 2 1 3 3 2 2 3 3 3 2 2 3 3 3 3 3 4 4 4 4 5 5 5 7 6 5 5 5 5 5 4 5
4 5 6 6 7 4 3 7 10 1 -3 12 5 -4 9 4 3 8 4 10 14 7 6 9 9 9 9 7 8 12 12 10 6 5 7 7 4 4 4 2 3 7 9 9 10 10 5 4 5 6 6 6 7 8 7 5 4 4 4 4 4 5 5 5 4 2 2 3 2 2 3 2 2 2 2 3 3 4 3 3 4 4 3 4 4 4 4 5 6 6 5 6 5 5 6 5 4
3 5 7 5 7 3 3 8 7 -0 -3 5 2 -0 8 2 1 8 6 9 9 4 4 6 8 10 10 8 9 10 10 10 8 6 7 8 6 5 3 3 5 6 8 9 10 10 7 4 4 6 6 6 8 9 7 5 4 4 4 4 4 5 5 4 3 2 3 3 2 2 3 2 2 2 2 3 4 4 4 4 4 4 3 3 4 3 3 5 5 4 4 7 6 4 6 6 7
3 3 6 7 8 -0 4 17 8 1 4 2 3 3 2 4 3 6 10 5 4 8 8 6 5 8 11 10 9 10 9 8 9 8 6 6 6 6 4 4 4 5 8 9 11 11 7 4 4 5 6 6 8 9 7 5 4 3 4 4 4 4 4 5 5 3 3 4 3 3 4 4 3 4 4 4 5 4 4 4 4 4 4 4 4 3 3 4 6 4 4 7 6 3 7 8 7
5 4 5 6 8 0 -1 11 7 2 5 2 7 5 1 7 3 3 8 2 6 12 10 7 2 5 12 12 10 10 10 8 7 8 7 6 6 6 3 3 3 3 7 9 11 11 7 5 5 4 6 6 8 9 7 5 4 3 4 4 3 4 4 5 6 5 4 4 5 6 6 6 5 5 6 5 4 5 5 5 5 5 5 5 5 5 5 5 6 6 5 6 5 4 9 9 5
6 5 7 6 6 7 1 -0 1 2 4 5 9 5 3 6 1 8 10 0 6 9 9 8 0 3 7 9 10 10 11 10 8 8 8 8 6 6 4 4 4 3 6 9 11 12 7 5 4 4 5 6 8 9 7 5 4 3 3 4 4 5 6 6 5 5 5 5 6 7 6 5 6 6 5 5 5 6 6 6 7 6 6 6 6 7 7 8 9 8 8 7 6 7 8 9 7
9 5 4 5 4 6 7 2 0 3 7 8 7 2 3 6 0 9 11 3 9 7 6 7 1 4 7 8 10 10 11 10 9 9 8 9 7 7 7 6 6 3 6 8 11 13 8 4 4 5 5 6 8 8 7 6 4 3 4 4 5 6 5 4 4 5 6 7 7 6 6 5 7 7 5 6 6 5 6 5 6 6 7 8 8 9 9 10 10 9 9 8 8 10 9 9 8
9 6 3 4 4 4 7 6 3 4 7 6 8 5 3 6 -0 3 8 6 7 3 6 10 5 8 10 9 9 10 12 10 10 9 7 8 6 6 5 5 5 4 7 8 10 14 10 5 5 5 5 6 7 8 7 6 4 3 4 4 4 5 4 3 4 6 7 7 7 6 6 6 6 7 5 5 5 4 5 5 5 7 7 9 9 9 9 8 7 6 7 6 6 8 9 9 8
4 6 5 3 3 3 6 7 3 4 7 3 6 5 1 5 -1 -1 7 6 4 0 6 12 6 8 11 8 8 9 11 11 11 9 8 9 8 7 6 6 6 5 6 8 10 13 11 6 6 6 5 6 7 9 8 6 5 4 4 4 4 4 3 3 4 5 7 7 7 7 5 5 6 7 6 5 5 5 6 6 7 7 7 9 10 9 7 5 4 4 5 7 7 7 8 9 9
4 3 5 7 4 1 5 7 4 8 9 3 6 8 5 5 -0 5 11 5 4 3 5 9 3 2 7 7 6 6 10 12 10 8 8 9 8 8 9 8 7 7 7 8 9 12 12 6 5 7 5 5 7 8 8 6 5 4 4 5 4 5 3 4 5 5 6 6 6 6 6 5 6 7 6 5 6 6 6 6 6 7 7 8 9 7 5 4 6 7 7 8 9 9 9 10 11
5 1 1 9 8 1 1 2 3 7 6 3 5 4 6 4 -3 11 18 5 5 6 2 6 7 2 3 7 6 5 9 10 11 10 8 9 8 7 8 7 6 7 8 8 9 12 14 7 5 7 5 5 7 7 8 6 4 3 4 5 4 4 4 4 5 5 5 6 6 6 7 6 6 7 6 6 6 6 6 6 6 7 8 8 8 6 4 6 8 8 8 8 9 9 9 11 12
5 2 -2 4 8 7 9 9 5 5 7 8 4 -1 9 13 2 6 11 4 2 -0 -2 8 14 7 4 9 9 8 9 8 11 13 10 11 13 11 10 9 7 5 7 9 9 13 15 8 5 7 5 5 6 7 7 6 5 4 3 4 4 4 4 4 4 6 5 6 6 6 6 6 7 7 6 6 5 6 6 6 8 10 10 9 8 6 5 7 8 7 7 8 8 8 8 10 11
4 4 4 5 4 5 16 20 9 5 7 7 5 -1 2 12 8 -4 -5 6 6 -4 -1 10 12 4 4 10 9 9 9 10 13 13 13 14 15 14 11 10 7 4 6 10 10 12 15 9 5 7 6 5 6 6 7 6 5 4 3 2 4 4 4 4 4 4 5 6 6 6 6 6 7 6 5 6 6 7 7 6 8 11 13 12 10 8 7 7 7 7 8 8 9 9 9 9 10
5 4 5 8 4 -1 11 18 9 4 5 6 6 1 5 17 15 -8 -16 7 11 1 7 11 8 3 1 4 6 7 9 12 14 13 13 14 16 17 13 10 8 5 5 9 10 11 13 10 6 7 6 4 5 6 6 7 5 4 4 3 4 4 3 3 4 4 5 6 6 6 6 6 6 6 5 6 6 6 7 7 9 14 15 12 11 9 7 6 7 8 9 10 10 11 11 10 10
7 6 4 7 6 2 6 11 8 5 6 9 5 5 13 14 13 2 -11 -2 1 1 11 10 5 3 0 4 8 8 7 10 13 14 13 12 13 15 16 12 8 6 6 8 9 10 14 12 7 6 7 5 4 7 7 7 7 5 4 5 4 4 4 3 4 4 5 6 7 6 6 6 6 5 5 6 6 5 6 6 10 15 13 10 10 7 6 7 9 10 10 10 10 10 11 11 10
8 7 6 6 5 4 6 6 8 6 5 12 11 12 8 -8 5 14 -5 -8 -1 4 11 9 5 4 3 6 10 8 7 11 12 12 13 11 11 13 16 14 8 7 7 7 6 9 14 12 7 6 7 6 4 6 7 7 8 7 6 6 5 4 4 4 4 5 5 6 6 6 6 6 5 5 6 6 4 4 5 6 10 13 10 8 7 5 7 10 10 9 9 7 6 6 8 9 10
8 6 6 7 5 4 5 6 12 11 9 14 9 6 4 -6 2 6 1 11 14 4 -1 1 3 5 5 4 4 5 7 13 13 11 13 12 13 15 16 15 11 9 9 7 6 9 13 11 7 6 7 7 5 5 6 7 7 7 7 5 5 4 4 4 5 5 6 6 6 6 6 6 5 6 6 5 3 3 5 6 9 10 7 6 5 6 9 11 9 8 7 4 3 5 5 5 6
5 5 6 8 7 5 5 7 11 12 12 12 3 0 4 4 0 -3 8 16 6 -1 -3 4 12 8 7 5 3 4 6 12 13 10 13 14 13 15 16 15 13 13 12 8 6 10 13 10 6 6 8 7 6 6 5 6 7 6 6 4 4 4 4 5 5 6 6 6 6 6 6 6 5 6 6 4 3 3 5 7 8 8 6 5 4 6 10 10 8 7 7 4 4 5 4 4 3
4 3 4 7 8 7 7 7 6 9 9 -2 0 13 5 -2 3 2 3 -2 -10 -3 1 8 11 2 4 6 3 5 5 7 10 9 12 15 14 13 15 14 14 16 13 7 6 11 12 9 6 5 7 8 6 6 4 5 6 6 5 5 5 4 4 5 5 6 6 6 6 6 6 5 5 7 5 3 3 2 4 7 9 7 5 5 4 6 9 8 7 7 8 7 6 5 5 5 3
6 4 2 5 9 8 10 13 8 5 2 -8 3 23 12 -2 3 0 -2 2 0 -0 2 3 -2 -5 9 11 2 3 5 3 8 11 10 12 14 14 15 15 15 15 11 7 6 12 14 8 6 6 6 8 6 5 4 4 5 6 6 5 6 6 6 6 6 6 6 6 6 6 6 4 6 7 4 3 3 2 4 6 9 7 4 4 3 6 8 5 6 9 11 10 7 6 7 8 6
7 7 3 3 8 7 12 20 15 -0 -4 2 -1 -2 9 14 8 -2 -6 -1 3 2 1 2 -1 2 13 13 3 2 6 7 8 10 9 10 13 15 15 15 16 12 8 8 7 11 15 8 4 6 6 7 6 5 4 4 6 6 7 7 7 7 6 6 6 6 6 6 6 6 6 4 7 7 3 3 3 3 4 6 9 8 5 4 4 5 5 3 6 12 13 9 7 8 11 11 10
8 8 5 4 5 3 5 11 17 9 -1 7 -6 -22 9 30 13 5 3 -2 3 6 2 3 5 6 10 11 6 4 6 7 7 8 7 6 10 15 15 15 16 12 6 6 8 11 14 9 5 5 5 6 6 5 4 5 7 7 7 8 7 7 7 6 6 6 6 6 6 7 5 4 7 7 3 4 4 4 5 5 8 9 6 4 4 5 5 2 6 12 11 7 8 11 13 12 10
10 9 5 5 6 3 2 0 9 10 -1 5 4 -5 13 19 3 1 3 -2 0 4 4 8 10 7 11 10 4 6 7 6 6 5 4 4 9 14 14 14 16 13 8 5 7 11 13 9 5 4 4 6 5 5 5 6 7 7 6 7 7 7 7 6 6 7 7 6 7 8 5 6 8 6 4 5 5 4 5 5 6 8 8 5 4 5 5 2 4 10 9 6 9 11 11 10 10
12 13 7 5 5 7 14 7 -0 -0 1 9 11 7 6 4 5 3 -5 -6 -4 -1 -1 5 13 12 13 8 2 9 7 5 7 2 3 8 11 15 12 14 19 14 8 7 7 11 13 8 5 5 5 6 6 6 6 6 7 7 7 7 6 7 7 7 8 8 8 9 9 7 6 8 8 6 5 6 6 6 6 6 6 8 8 6 5 5 4 3 4 8 8 6 8 9 10 11 11
12 15 12 9 4 5 18 12 -2 -3 6 9 1 0 -0 1 16 16 8 7 2 2 2 5 11 7 10 7 3 14 11 5 8 2 4 10 11 15 13 12 17 14 9 8 9 13 13 7 5 6 6 6 8 7 7 7 7 7 7 6 5 6 6 6 8 9 9 9 7 5 7 8 7 5 5 6 7 7 6 6 6 7 8 7 7 5 4 4 4 6 8 7 7 7 10 13 13
14 17 14 13 6 4 10 6 1 1 3 6 0 0 -3 -7 6 9 8 12 5 -0 0 2 1 -1 13 12 -0 9 11 7 9 2 1 6 7 12 14 15 14 12 10 7 9 15 13 7 5 6 7 7 8 8 8 7 8 8 6 6 5 6 7 7 8 9 8 7 4 5 8 7 5 5 6 7 9 8 7 7 7 7 7 7 7 7 6 4 4 6 8 7 6 6 9 13 14
13 18 15 12 7 7 7 1 3 2 -2 2 5 9 3 -8 1 4 1 11 15 7 -3 -3 -1 -4 3 8 5 6 5 8 9 3 1 4 7 9 11 17 16 10 9 7 9 15 12 5 4 7 8 9 10 9 9 8 8 8 6 5 5 5 7 8 9 8 7 5 4 7 7 6 5 6 7 8 8 8 8 7 7 7 7 7 7 7 6 5 4 5 7 7 6 6 8 11 13
9 15 17 14 10 11 7 3 6 2 -2 2 3 8 5 -2 5 6 -1 9 27 29 10 -8 -6 4 9 16 21 9 -1 10 10 3 5 5 9 12 9 15 19 13 8 7 10 14 10 4 4 8 9 10 10 9 10 10 8 8 6 6 6 6 7 9 8 7 5 4 5 7 7 6 6 8 8 8 7 8 8 8 7 7 7 7 7 6 5 5 5 5 7 7 5 6 8 9 10
8 11 17 15 12 12 7 7 8 -4 -14 -7 2 2 -0 6 12 5 -1 4 15 22 18 4 -3 2 10 18 24 12 1 9 7 1 5 6 10 13 9 12 18 17 12 8 10 13 10 5 6 9 10 10 9 9 10 10 9 8 6 6 8 8 8 9 8 6 5 5 6 7 7 7 7 8 8 6 6 7 7 8 9 9 9 7 6 7 6 5 5 5 5 6 5 4 7 9 8
8 9 16 15 11 9 9 11 5 -5 -13 -13 1 5 -1 3 5 2 9 13 5 1 14 29 19 -3 -5 12 27 25 14 6 -0 2 7 8 9 9 9 13 17 18 16 11 12 14 9 5 8 10 10 9 8 9 9 9 9 7 6 6 8 10 10 9 7 5 5 6 8 8 8 8 6 6 6 5 5 5 5 8 9 10 11 10 8 7 6 6 6 6 5 6 6 3 5 8 8
8 7 11 13 9 3 7 9 -0 1 5 -1 4 12 1 -13 -17 -8 5 8 1 -5 3 19 20 7 5 16 21 15 7 0 0 8 11 8 7 8 9 14 18 17 14 13 14 14 8 4 9 11 9 9 7 8 9 8 8 7 6 6 7 10 11 9 6 4 6 8 9 9 7 7 5 5 5 4 3 3 5 6 6 7 9 10 12 9 7 6 5 7 7 6 6 4 3 6 8
4 4 4 8 10 7 7 9 5 5 9 9 8 6 -2 -13 -11 -1 -2 -2 -2 -8 -0 10 8 5 1 -1 -3 -7 -7 1 12 14 7 3 6 7 7 13 21 17 10 13 14 12 7 5 8 9 8 8 7 8 8 6 7 7 6 7 7 11 11 8 5 4 7 8 8 8 6 7 7 5 6 4 2 3 3 2 2 4 5 6 9 10 10 9 5 5 7 8 7 5 3 3 6
4 4 4 5 5 8 10 10 13 11 7 15 10 -0 5 6 10 14 -1 -1 5 -12 -10 6 5 3 4 -5 -16 -15 -5 5 14 11 2 4 8 6 7 12 19 17 11 13 14 11 7 5 6 7 7 8 7 8 8 6 7 6 7 8 8 11 12 9 3 4 9 10 7 7 7 7 6 5 6 5 3 3 2 2 0 1 3 3 4 6 8 10 9 7 6 7 9 8 5 2 3
7 4 2 5 5 7 10 6 11 14 7 13 7 -2 9 6 6 18 2 1 15 -3 -12 0 5 9 15 14 4 -1 5 8 11 10 7 12 10 6 9 10 13 15 12 14 15 11 8 6 5 4 4 6 5 7 7 7 8 7 8 10 9 11 12 8 3 5 11 11 7 7 7 7 6 4 5 5 3 3 3 3 2 0 1 2 2 3 4 7 10 10 8 7 8 9 9 5 2
8 7 -1 3 8 9 13 7 7 12 7 9 8 6 17 11 9 23 16 12 24 21 12 6 2 2 3 16 29 17 4 8 15 14 11 16 14 8 9 10 13 14 10 11 13 10 8 7 6 5 4 5 4 5 6 6 8 8 8 10 9 11 11 7 4 6 12 12 8 6 5 5 5 5 4 4 4 3 3 3 4 2 0 1 2 2 2 4 5 8 10 9 7 7 9 9 5
4 6 3 6 7 6 13 11 4 6 4 6 10 8 13 16 17 20 17 16 19 27 39 22 0 0 -1 9 25 16 7 12 12 8 12 18 14 8 9 12 16 15 9 10 11 9 9 9 9 8 6 7 6 5 5 6 8 8 8 9 9 10 10 6 4 7 11 11 7 5 5 4 5 4 3 4 4 3 2 2 3 4 2 1 2 1 1 2 3 4 8 11 11 7 7 10 9
5 4 6 8 7 3 6 5 2 6 5 4 8 7 5 9 14 15 17 21 14 15 35 30 7 4 4 9 18 15 12 7 -6 -1 16 18 10 8 9 10 12 13 12 12 11 10 9 9 11 11 9 9 7 5 6 7 8 7 8 9 9 10 10 7 5 7 8 7 7 5 5 5 4 3 2 2 2 2 1 1 1 3 4 2 2 3 1 0 1 2 4 8 12 11 8 7 9
5 3 6 10 11 11 8 2 1 7 7 4 6 8 9 10 11 14 16 19 16 16 25 20 7 10 11 10 13 12 11 8 2 9 16 13 11 10 8 7 7 10 13 13 13 12 10 10 10 11 11 9 8 8 8 8 8 9 9 10 10 9 9 8 5 4 4 5 6 5 4 4 4 3 3 2 3 3 3 2 1 2 4 5 3 4 4 2 1 1 1 3 8 12 11 7 7
7 -2 -4 3 7 10 12 8 5 6 6 5 6 7 10 10 12 16 15 12 12 18 30 20 2 8 14 7 7 10 12 17 17 17 13 12 13 7 6 9 8 10 12 11 13 12 10 11 10 10 10 9 9 9 9 10 9 9 9 9 10 9 9 9 6 4 4 3 3 4 4 4 4 4 4 4 4 5 6 6 5 3 3 6 6 6 6 6 3 1 0 1 3 9 13 11 7
10 6 -1 -3 -1 2 6 9 9 9 6 3 2 6 13 17 16 13 8 10 10 6 18 24 8 6 10 7 8 8 6 9 11 14 13 10 9 5 5 9 10 13 15 11 11 11 10 10 9 9 9 8 10 9 8 9 7 7 8 7 8 9 9 9 7 6 7 5 4 5 4 4 4 4 5 7 7 7 8 9 10 9 6 6 8 8 8 8 6 4 2 1 1 4 11 15 10
Height
5894 5894 5894 5894 5894 5894 5894 5894 5893 5893 5892 5891 5892 5892 5892 5893 5893 5893 5892 5892 5893 5894 5893 5895 5896 5896 5897 5897 5897 5898 5899 5901 5901 5902 5903 5903 5904 5905 5905 5906 5906 5905 5905 5906 5906 5905 5905 5906 5906 5906 5907 5907 5907 5907 5908 5908 5908 5909 5909 5909 5909 5909 5910 5910 5910 5911 5911 5912 5912 5913 5913 5913 5913 5913 5913 5913 5913 5912 5912 5912 5912 5912 5912 5912 5912 5913 5913 5913 5914 5915 5916 5916 5916 5916 5916 5917 5917
5895 5895 5895 5895 5895 5894 5894 5894 5894 5894 5893 5892 5892 5892 5893 5893 5894 5893 5893 5893 5894 5895 5895 5896 5897 5897 5898 5898 5899 5900 5901 5901 5901 5902 5903 5904 5906 5906 5906 5906 5906 5906 5906 5906 5906 5906 5906 5907 5907 5907 5907 5908 5908 5908 5909 5909 5909 5909 5909 5909 5909 5910 5910 5911 5911 5912 5912 5913 5913 5913 5913 5914 5914 5914 5914 5914 5913 5913 5913 5913 5913 5914 5914 5913 5913 5914 5914 5915 5916 5917 5917 5917 5917 5916 5917 5917 5917
5896 5896 5896 5896 5896 5895 5895 5895 5894 5894 5893 5893 5892 5892 5893 5894 5895 5895 5895 5895 5895 5896 5897 5898 5898 5898 5899 5900 5900 5901 5901 5902 5902 5903 5904 5905 5906 5907 5907 5907 5907 5906 5906 5906 5906 5906 5907 5907 5907 5908 5908 5908 5909 5909 5910 5910 5910 5910 5910 5910 5910 5911 5911 5912 5912 5913 5913 5913 5914 5914 5914 5914 5914 5915 5915 5914 5914 5914 5914 5914 5914 5915 5915 5915 5915 5915 5916 5916 5917 5917 5918 5918 5917 5917 5917 5917 5917
5896 5896 5896 5896 5896 5896 5895 5896 5896 5895 5894 5894 5894 5893 5894 5894 5895 5896 5896 5896 5897 5898 5899 5899 5900 5900 5901 5901 5901 5901 5902 5902 5903 5903 5904 5905 5906 5907 5908 5907 5907 5907 5906 5906 5907 5907 5907 5908 5908 5908 5909 5909 5910 5910 5910 5910 5910 5910 5910 5911 5911 5912 5912 5913 5913 5914 5914 5914 5915 5915 5915 5915 5915 5915 5915 5915 5915 5915 5915 5915 5916 5916 5917 5917 5917 5917 5917 5917 5918 5918 5918 5918 5917 5917 5917 5917 5918
5896 5896 5896 5896 5896 5896 5896 5896 5896 5896 5895 5895 5894 5894 5894 5894 5895 5896 5897 5897 5898 5898 5899 5901 5902 5903 5902 5902 5901 5902 5902 5902 5904 5904 5904 5906 5907 5907 5908 5908 5908 5908 5907 5907 5908 5908 5908 5908 5908 5909 5910 5910 5910 5911 5911 5911 5911 5911 5911 5912 5912 5913 5913 5914 5914 5914 5915 5915 5916 5916 5916 5916 5916 5916 5916 5916 5916 5916 5916 5917 5917 5917 5917 5917 5918 5918 5918 5918 5918 5919 5919 5919 5917 5917 5917 5918 5919
5896 5896 5896 5896 5896 5897 5897 5896 5896 5897 5896 5895 5895 5894 5894 5894 5894 5896 5897 5898 5899 5900 5901 5902 5903 5903 5902 5902 5903 5903 5903 5903 5904 5905 5904 5906 5908 5908 5909 5909 5909 5908 5908 5908 5908 5909 5909 5909 5909 5910 5910 5911 5911 5911 5911 5911 5911 5912 5912 5913 5913 5914 5914 5914 5915 5915 5916 5916 5917 5917 5917 5917 5917 5917 5917 5917 5917 5917 5917 5917 5918 5917 5917 5918 5919 5919 5919 5919 5918 5919 5919 5919 5918 5918 5918 5919 5920
5897 5897 5897 5897 5897 5897 5897 5897 5897 5897 5897 5896 5895 5896 5896 5895 5895 5897 5898 5900 5902 5903 5901 5900 5901 5901 5902 5903 5904 5904 5904 5904 5905 5906 5905 5906 5908 5908 5909 5909 5909 5909 5909 5909 5909 5909 5909 5909 5910 5910 5911 5911 5912 5912 5912 5912 5912 5913 5913 5913 5914 5914 5915 5915 5915 5916 5917 5917 5917 5918 5918 5918 5918 5918 5918 5917 5917 5917 5917 5917 5917 5917 5917 5918 5919 5919 5919 5919 5919 5920 5919 5919 5918 5919 5920 5920 5920
5897 5898 5898 5898 5897 5897 5898 5898 5897 5897 5897 5896 5895 5896 5896 5895 5897 5899 5900 5901 5902 5901 5899 5899 5900 5901 5902 5903 5904 5904 5905 5905 5905 5906 5906 5907 5908 5909 5909 5910 5910 5909 5909 5910 5910 5910 5910 5910 5911 5911 5911 5912 5912 5912 5912 5913 5913 5913 5914 5914 5915 5915 5915 5916 5916 5917 5918 5918 5918 5918 5919 5919 5919 5919 5919 5918 5918 5917 5917 5917 5917 5917 5917 5917 5918 5919 5920 5920 5920 5921 5920 5920 5920 5920 5920 5920 5920
5898 5898 5898 5898 5898 5897 5898 5898 5898 5897 5896 5896 5895 5895 5894 5893 5896 5897 5898 5899 5899 5899 5899 5900 5902 5902 5903 5904 5905 5905 5905 5905 5906 5906 5907 5907 5909 5909 5910 5910 5910 5910 5910 5910 5910 5910 5911 5911 5911 5911 5912 5912 5912 5913 5913 5914 5914 5914 5915 5915 5916 5916 5916 5917 5918 5918 5919 5919 5919 5919 5920 5920 5921 5921 5921 5921 5920 5919 5919 5919 5919 5919 5920 5920 5921 5922 5922 5922 5922 5921 5921 5921 5920 5921 5921 5920 5920
5898 5898 5898 5898 5898 5898 5898 5898 5898 5897 5896 5896 5896 5897 5895 5894 5896 5895 5896 5898 5899 5900 5901 5902 5903 5903 5904 5904 5905 5906 5906 5906 5906 5907 5907 5908 5909 5909 5910 5910 5910 5910 5910 5910 5911 5911 5911 5912 5912 5912 5912 5913 5913 5914 5914 5915 5915 5915 5916 5916 5917 5917 5918 5918 5919 5919 5920 5920 5920 5921 5921 5922 5922 5923 5923 5923 5923 5923 5923 5922 5923 5923 5923 5923 5923 5923 5922 5921 5921 5921 5921 5921 5921 5921 5921 5920 5920
5898 5898 5898 5898 5898 5899 5899 5899 5899 5898 5897 5897 5897 5897 5896 5897 5898 5897 5898 5900 5901 5902 5902 5902 5903 5903 5904 5904 5905 5906 5906 5906 5906 5907 5908 5908 5909 5910 5910 5911 5911 5911 5911 5911 5911 5912 5912 5912 5913 5913 5913 5913 5914 5915 5915 5915 5916 5917 5917 5918 5918 5919 5920 5920 5920 5921 5921 5921 5921 5922 5922 5923 5923 5924 5924 5924 5924 5924 5924 5923 5923 5923 5923 5923 5922 5922 5921 5920 5921 5921 5922 5922 5921 5921 5921 5920 5920
5898 5898 5898 5898 5898 5899 5899 5900 5899 5898 5897 5897 5896 5896 5897 5899 5900 5900 5900 5901 5902 5902 5903 5903 5903 5904 5904 5905 5905 5906 5906 5906 5906 5907 5908 5909 5909 5910 5911 5911 5911 5911 5911 5911 5912 5912 5913 5913 5914 5914 5914 5914 5915 5915 5916 5916 5917 5918 5919 5920 5920 5921 5921 5921 5922 5922 5922 5922 5923 5923 5923 5924 5924 5924 5924 5924 5924 5924 5923 5923 5922 5922 5921 5921 5921 5921 5920 5921 5921 5921 5922 5922 5921 5921 5921 5921 5920
5899 5898 5898 5898 5898 5898 5899 5899 5899 5898 5897 5898 5897 5896 5897 5898 5900 5901 5901 5902 5902 5903 5903 5903 5903 5904 5905 5905 5905 5906 5906 5907 5907 5907 5908 5909 5910 5911 5911 5911 5911 5911 5911 5911 5912 5912 5913 5914 5915 5915 5915 5915 5916 5916 5917 5918 5919 5920 5921 5921 5922 5922 5922 5923 5923 5923 5923 5924 5924 5924 5925 5925 5925 5925 5925 5925 5924 5924 5923 5923 5923 5922 5922 5921 5921 5921 5921 5922 5922 5922 5922 5922 5922 5922 5921 5921 5921
5898 5898 5899 5898 5898 5898 5899 5899 5899 5899 5898 5898 5898 5896 5896 5897 5899 5901 5902 5902 5903 5903 5903 5903 5903 5904 5904 5905 5905 5906 5907 5907 5908 5908 5908 5909 5910 5911 5911 5911 5912 5912 5912 5912 5912 5913 5914 5915 5915 5916 5916 5916 5916 5917 5918 5919 5920 5921 5922 5922 5923 5924 5924 5924 5924 5924 5925 5925 5926 5926 5926 5927 5927 5927 5926 5926 5925 5925 5925 5924 5924 5924 5923 5923 5923 5923 5923 5923 5924 5924 5923 5923 5923 5923 5922 5922 5922
5898 5898 5899 5898 5898 5899 5899 5898 5899 5899 5898 5898 5898 5897 5897 5897 5898 5899 5901 5902 5902 5903 5903 5903 5903 5903 5904 5905 5905 5906 5907 5908 5908 5908 5909 5909 5910 5911 5911 5912 5912 5912 5912 5912 5913 5913 5914 5915 5916 5916 5917 5917 5917 5918 5919 5920 5921 5922 5923 5924 5924 5925 5925 5925 5925 5926 5926 5927 5927 5928 5928 5928 5928 5928 5928 5927 5927 5927 5926 5926 5926 5926 5925 5925 5925 5925 5925 5925 5925 5925 5925 5924 5924 5924 5924 5923 5923
5897 5898 5898 5898 5898 5899 5899 5898 5899 5899 5899 5898 5898 5898 5897 5897 5898 5898 5900 5902 5902 5902 5903 5903 5903 5903 5903 5904 5905 5905 5906 5907 5908 5908 5909 5910 5910 5911 5911 5912 5913 5913 5913 5913 5913 5914 5915 5916 5916 5917 5917 5918 5918 5919 5920 5921 5922 5923 5924 5925 5926 5926 5926 5927 5927 5927 5928 5929 5929 5929 5930 5930 5930 5929 5929 5929 5929 5929 5928 5928 5928 5927 5927 5927 5926 5926 5926 5927 5927 5927 5926 5926 5925 5925 5925 5925 5924
5897 5898 5898 5898 5898 5899 5899 5899 5900 5900 5899 5899 5899 5899 5898 5897 5898 5898 5899 5902 5902 5902 5903 5903 5903 5904 5904 5904 5905 5905 5906 5907 5908 5909 5909 5910 5911 5911 5912 5912 5913 5913 5913 5913 5914 5914 5915 5916 5916 5917 5918 5919 5919 5920 5921 5922 5923 5924 5925 5926 5927 5927 5927 5928 5928 5929 5930 5930 5931 5931 5931 5931 5931 5931 5930 5931 5930 5930 5930 5930 5929 5929 5928 5928 5928 5928 5928 5928 5928 5928 5928 5927 5927 5926 5926 5926 5925
5896 5897 5897 5897 5898 5898 5899 5899 5900 5901 5900 5900 5900 5900 5898 5898 5899 5898 5899 5901 5902 5903 5903 5903 5903 5904 5904 5904 5905 5905 5906 5907 5908 5909 5910 5911 5911 5912 5912 5913 5913 5913 5914 5914 5914 5915 5915 5916 5917 5918 5919 5919 5920 5921 5922 5923 5924 5925 5926 5927 5928 5928 5929 5929 5930 5930 5931 5932 5932 5932 5933 5933 5933 5932 5932 5932 5932 5932 5931 5931 5931 5930 5930 5930 5929 5929 5929 5929 5930 5930 5929 5929 5928 5928 5927 5927 5926
5894 5896 5896 5897 5898 5898 5898 5899 5900 5901 5900 5900 5900 5900 5899 5899 5899 5899 5899 5901 5902 5903 5904 5904 5903 5903 5904 5904 5905 5906 5906 5907 5908 5909 5909 5911 5911 5912 5913 5913 5913 5913 5914 5914 5914 5915 5915 5916 5917 5918 5919 5920 5921 5922 5923 5924 5925 5926 5927 5928 5929 5929 5930 5931 5931 5932 5932 5933 5934 5934 5934 5934 5934 5934 5933 5933 5933 5933 5933 5932 5932 5932 5931 5931 5931 5931 5931 5931 5931 5931 5931 5930 5929 5929 5929 5928 5927
5893 5894 5895 5896 5897 5897 5898 5899 5900 5901 5901 5900 5900 5900 5900 5899 5900 5899 5899 5901 5902 5902 5903 5904 5904 5904 5904 5904 5905 5905 5906 5907 5908 5909 5910 5911 5911 5912 5913 5913 5913 5914 5914 5914 5914 5915 5916 5917 5918 5919 5920 5921 5922 5923 5924 5925 5926 5927 5928 5929 5930 5930 5931 5932 5932 5933 5934 5934 5935 5935 5935 5935 5935 5935 5935 5935 5935 5935 5934 5934 5934 5933 5933 5933 5933 5932 5932 5932 5932 5932 5932 5931 5930 5930 5930 5930 5930
5891 5893 5894 5894 5896 5897 5897 5898 5899 5900 5900 5901 5901 5901 5900 5899 5899 5899 5900 5902 5902 5902 5902 5903 5903 5904 5904 5904 5904 5905 5906 5907 5908 5909 5910 5911 5911 5912 5913 5913 5914 5914 5914 5914 5915 5915 5916 5917 5918 5919 5920 5921 5922 5923 5924 5926 5927 5928 5929 5930 5931 5932 5933 5933 5934 5934 5935 5935 5936 5936 5936 5936 5936 5936 5936 5936 5936 5936 5936 5935 5935 5935 5934 5934 5934 5934 5933 5933 5933 5933 5933 5932 5931 5931 5931 5932 5932
5890 5892 5893 5893 5894 5896 5896 5897 5898 5898 5899 5901 5902 5901 5899 5899 5899 5900 5900 5902 5902 5902 5902 5902 5902 5904 5904 5904 5903 5904 5905 5906 5908 5909 5910 5911 5911 5912 5913 5913 5914 5914 5914 5915 5915 5916 5917 5918 5919 5920 5921 5922 5923 5924 5925 5926 5927 5929 5930 5931 5932 5933 5934 5934 5935 5935 5936 5936 5937 5937 5937 5937 5937 5937 5937 5937 5937 5937 5937 5936 5936 5936 5936 5935 5935 5935 5935 5935 5935 5934 5934 5933 5932 5931 5932 5934 5933
5889 5890 5892 5892 5893 5894 5895 5896 5897 5898 5899 5900 5901 5899 5899 5899 5899 5900 5899 5901 5902 5902 5903 5902 5902 5903 5903 5904 5903 5904 5905 5906 5907 5909 5910 5910 5911 5912 5912 5913 5913 5914 5915 5915 5916 5916 5917 5918 5919 5920 5921 5922 5923 5924 5926 5927 5928 5929 5930 5931 5933 5934 5935 5935 5936 5936 5937 5937 5937 5938 5938 5938 5938 5938 5938 5938 5938 5938 5938 5938 5938 5938 5937 5937 5936 5936 5936 5936 5936 5935 5935 5934 5933 5932 5932 5934 5935
5888 5889 5890 5892 5892 5894 5895 5896 5896 5897 5897 5898 5899 5898 5898 5899 5898 5898 5898 5900 5901 5902 5903 5902 5902 5903 5903 5904 5904 5904 5904 5905 5906 5908 5909 5910 5911 5912 5912 5913 5913 5914 5915 5915 5916 5917 5918 5918 5920 5921 5922 5923 5924 5925 5926 5928 5929 5930 5931 5932 5934 5935 5936 5936 5937 5937 5937 5938 5938 5939 5939 5939 5939 5939 5939 5939 5939 5939 5939 5939 5939 5939 5939 5938 5938 5937 5937 5937 5937 5936 5936 5935 5934 5933 5932 5933 5934
5887 5888 5889 5891 5892 5893 5894 5896 5896 5897 5897 5897 5898 5897 5898 5898 5897 5897 5898 5900 5901 5903 5903 5902 5902 5902 5902 5903 5903 5904 5904 5905 5906 5907 5908 5909 5910 5911 5912 5912 5913 5914 5915 5915 5916 5917 5918 5919 5920 5921 5922 5923 5924 5925 5927 5928 5929 5931 5932 5933 5934 5936 5937 5937 5937 5938 5938 5939 5939 5939 5940 5940 5940 5940 5940 5940 5940 5940 5940 5940 5940 5940 5939 5939 5939 5938 5938 5937 5937 5937 5936 5935 5934 5934 5933 5932 5933
5886 5886 5887 5889 5891 5892 5893 5895 5896 5897 5897 5897 5898 5897 5898 5898 5897 5896 5898 5900 5901 5903 5903 5902 5902 5902 5902 5902 5903 5904 5904 5904 5905 5907 5907 5908 5910 5911 5911 5912 5913 5914 5915 5915 5916 5917 5918 5919 5920 5921 5922 5923 5924 5926 5927 5928 5930 5931 5932 5934 5935 5936 5937 5938 5938 5938 5939 5939 5939 5940 5940 5940 5940 5941 5941 5941 5941 5941 5941 5941 5941 5940 5940 5940 5939 5939 5938 5938 5937 5937 5936 5936 5936 5935 5934 5933 5932
5884 5885 5886 5887 5890 5891 5892 5894 5895 5896 5897 5898 5898 5898 5899 5899 5897 5895 5896 5898 5900 5902 5902 5902 5902 5902 5902 5902 5902 5903 5904 5904 5905 5906 5907 5908 5909 5910 5910 5911 5912 5914 5915 5915 5916 5917 5918 5919 5920 5921 5922 5923 5925 5926 5927 5929 5930 5931 5933 5934 5936 5937 5938 5938 5939 5939 5939 5940 5940 5940 5941 5941 5941 5941 5942 5942 5942 5942 5942 5941 5941 5941 5941 5940 5940 5940 5939 5939 5938 5937 5936 5936 5936 5935 5935 5934 5933
5881 5883 5884 5886 5888 5889 5890 5892 5894 5895 5896 5898 5898 5898 5899 5899 5897 5894 5895 5897 5899 5901 5901 5902 5902 5902 5902 5902 5902 5902 5903 5904 5904 5905 5906 5907 5908 5909 5910 5910 5911 5913 5914 5915 5915 5916 5918 5919 5920 5921 5922 5924 5925 5926 5927 5929 5930 5932 5933 5935 5936 5937 5938 5939 5939 5939 5940 5940 5940 5941 5941 5941 5942 5942 5943 5943 5943 5943 5942 5942 5942 5942 5941 5941 5941 5941 5940 5939 5939 5937 5936 5936 5936 5935 5935 5936 5936
5880 5881 5882 5883 5885 5887 5888 5890 5893 5894 5895 5896 5897 5898 5898 5899 5897 5892 5893 5896 5898 5900 5901 5901 5902 5902 5902 5902 5902 5902 5902 5903 5904 5904 5905 5906 5907 5908 5909 5910 5911 5912 5914 5914 5915 5916 5917 5919 5920 5921 5922 5924 5925 5926 5927 5929 5931 5932 5934 5935 5936 5937 5938 5939 5939 5939 5940 5940 5941 5941 5941 5942 5942 5942 5943 5943 5944 5943 5943 5942 5942 5942 5942 5941 5941 5941 5941 5940 5939 5938 5937 5937 5936 5936 5936 5936 5936
5878 5879 5880 5881 5883 5885 5887 5889 5891 5893 5895 5895 5895 5896 5897 5899 5898 5891 5891 5895 5897 5900 5901 5901 5901 5902 5902 5902 5902 5902 5902 5902 5903 5904 5904 5905 5906 5907 5908 5910 5911 5912 5913 5914 5914 5916 5917 5918 5920 5921 5922 5924 5925 5926 5928 5929 5931 5933 5934 5935 5937 5937 5938 5939 5939 5939 5940 5940 5941 5941 5942 5942 5942 5943 5943 5943 5944 5944 5943 5943 5943 5943 5942 5942 5942 5941 5941 5941 5940 5939 5938 5937 5936 5936 5935 5936 5936
5874 5876 5878 5880 5882 5884 5886 5887 5890 5892 5893 5894 5893 5895 5896 5900 5898 5891 5889 5893 5896 5899 5901 5901 5901 5901 5902 5902 5902 5902 5902 5902 5902 5903 5903 5904 5905 5906 5907 5909 5910 5911 5913 5913 5914 5915 5917 5918 5919 5921 5922 5924 5925 5926 5928 5929 5931 5933 5934 5936 5937 5938 5938 5939 5939 5940 5940 5940 5941 5941 5942 5942 5943 5943 5943 5943 5944 5944 5944 5944 5943 5943 5943 5942 5942 5942 5942 5941 5941 5940 5939 5938 5937 5936 5936 5936 5936
5872 5874 5876 5879 5882 5883 5884 5886 5888 5890 5892 5892 5893 5895 5897 5899 5898 5892 5889 5891 5894 5897 5900 5902 5902 5901 5902 5902 5902 5902 5901 5902 5902 5902 5903 5903 5905 5906 5906 5908 5909 5911 5912 5912 5913 5914 5916 5918 5919 5920 5922 5924 5925 5926 5928 5929 5931 5933 5934 5936 5937 5938 5939 5939 5940 5940 5940 5941 5941 5941 5942 5942 5943 5943 5944 5944 5944 5944 5944 5944 5944 5944 5943 5943 5943 5942 5942 5942 5941 5941 5940 5940 5938 5937 5937 5936 5936
5872 5874 5876 5878 5881 5883 5883 5885 5887 5888 5890 5891 5892 5895 5897 5899 5898 5892 5890 5890 5893 5896 5898 5900 5901 5901 5901 5901 5901 5901 5901 5901 5901 5902 5902 5903 5904 5905 5906 5907 5908 5909 5910 5911 5912 5914 5915 5917 5919 5920 5922 5923 5925 5927 5928 5929 5931 5932 5934 5935 5937 5938 5939 5939 5940 5940 5941 5941 5941 5942 5942 5943 5944 5944 5944 5944 5944 5944 5945 5945 5945 5944 5944 5944 5943 5943 5943 5942 5942 5942 5941 5941 5940 5938 5938 5937 5936
5871 5873 5875 5877 5879 5881 5882 5884 5885 5887 5889 5889 5891 5895 5896 5898 5897 5893 5891 5890 5891 5894 5897 5898 5899 5900 5901 5902 5901 5901 5901 5901 5901 5901 5902 5902 5903 5904 5905 5906 5907 5908 5909 5910 5911 5913 5914 5916 5918 5920 5921 5923 5925 5927 5928 5929 5931 5932 5934 5935 5936 5937 5938 5939 5940 5941 5941 5941 5942 5942 5942 5943 5944 5945 5945 5945 5945 5945 5945 5945 5945 5945 5945 5945 5945 5944 5944 5943 5943 5943 5942 5942 5941 5940 5939 5938 5938
5870 5871 5873 5875 5877 5880 5881 5883 5884 5885 5887 5889 5891 5894 5896 5895 5894 5893 5892 5890 5890 5893 5896 5897 5897 5899 5901 5901 5901 5901 5901 5901 5901 5901 5901 5902 5903 5903 5905 5905 5906 5908 5909 5910 5911 5912 5914 5915 5918 5920 5921 5923 5925 5927 5928 5929 5931 5932 5933 5935 5936 5937 5938 5939 5940 5941 5941 5942 5942 5942 5943 5944 5944 5945 5945 5945 5945 5945 5945 5945 5946 5946 5946 5946 5946 5946 5945 5945 5944 5944 5943 5943 5942 5942 5941 5940 5939
5868 5870 5871 5873 5875 5878 5881 5882 5883 5885 5887 5889 5891 5893 5896 5895 5893 5892 5891 5890 5890 5892 5895 5895 5896 5898 5899 5899 5900 5900 5900 5901 5901 5901 5901 5902 5902 5903 5904 5905 5906 5907 5909 5910 5910 5911 5913 5915 5917 5919 5921 5923 5925 5926 5928 5929 5931 5932 5933 5934 5936 5937 5938 5939 5940 5941 5941 5942 5942 5943 5944 5944 5945 5945 5946 5946 5946 5946 5946 5946 5946 5947 5947 5947 5947 5947 5947 5946 5946 5945 5945 5944 5944 5943 5942 5941 5941
5865 5867 5867 5870 5873 5876 5879 5881 5882 5884 5886 5888 5890 5893 5894 5895 5892 5889 5889 5890 5890 5891 5894 5895 5895 5896 5897 5898 5899 5899 5899 5900 5900 5900 5901 5901 5901 5902 5903 5904 5905 5907 5908 5910 5910 5911 5912 5914 5916 5918 5920 5922 5924 5925 5927 5928 5930 5931 5932 5934 5935 5936 5938 5939 5940 5941 5942 5942 5943 5943 5944 5945 5945 5946 5946 5946 5946 5946 5946 5947 5947 5947 5947 5948 5948 5948 5948 5947 5947 5946 5946 5945 5945 5944 5943 5943 5942
5862 5863 5864 5867 5870 5873 5877 5879 5881 5884 5886 5887 5889 5892 5893 5893 5891 5887 5887 5889 5889 5891 5894 5895 5895 5895 5895 5897 5899 5899 5898 5898 5898 5899 5900 5900 5901 5901 5902 5903 5905 5906 5908 5909 5910 5911 5911 5913 5915 5917 5919 5921 5923 5924 5926 5927 5929 5930 5932 5933 5935 5936 5937 5939 5940 5941 5942 5942 5943 5944 5944 5945 5946 5946 5946 5947 5947 5947 5947 5947 5947 5948 5948 5948 5948 5948 5948 5948 5948 5947 5947 5946 5945 5945 5944 5944 5943
5858 5860 5862 5864 5867 5870 5874 5877 5879 5882 5885 5886 5887 5889 5891 5892 5891 5886 5885 5887 5888 5890 5893 5894 5894 5895 5896 5896 5897 5898 5897 5897 5897 5898 5898 5899 5900 5901 5901 5902 5904 5905 5906 5908 5910 5911 5911 5913 5914 5916 5918 5920 5922 5923 5925 5927 5928 5930 5932 5933 5935 5936 5937 5938 5939 5940 5941 5942 5943 5944 5945 5945 5946 5946 5947 5947 5947 5947 5947 5948 5948 5948 5948 5948 5949 5949 5949 5949 5948 5948 5947 5947 5946 5946 5946 5945 5944
5853 5856 5859 5862 5865 5868 5871 5876 5878 5880 5883 5886 5886 5887 5889 5890 5889 5884 5883 5886 5886 5887 5890 5892 5892 5895 5895 5894 5895 5897 5896 5896 5897 5897 5898 5898 5899 5900 5901 5901 5903 5904 5905 5907 5909 5911 5911 5912 5914 5915 5917 5919 5921 5922 5924 5926 5928 5930 5932 5933 5935 5936 5937 5938 5939 5940 5941 5942 5943 5944 5945 5945 5946 5946 5947 5947 5947 5947 5948 5948 5948 5949 5949 5949 5949 5949 5949 5949 5949 5948 5948 5947 5947 5947 5946 5946 5945
5850 5853 5856 5860 5864 5866 5868 5874 5879 5880 5881 5884 5885 5885 5885 5886 5887 5884 5883 5886 5885 5883 5887 5889 5890 5893 5893 5892 5894 5895 5895 5896 5896 5897 5898 5898 5898 5899 5900 5901 5902 5904 5905 5906 5908 5910 5910 5911 5913 5914 5916 5918 5919 5921 5923 5926 5928 5929 5931 5933 5934 5936 5937 5938 5939 5940 5941 5942 5943 5944 5945 5945 5946 5947 5947 5948 5948 5948 5948 5949 5949 5949 5949 5949 5950 5950 5950 5950 5949 5949 5948 5948 5948 5947 5947 5946 5946
5847 5850 5853 5858 5861 5864 5867 5870 5876 5879 5879 5881 5882 5882 5881 5883 5885 5885 5883 5884 5883 5882 5884 5886 5888 5890 5892 5892 5893 5894 5894 5895 5896 5896 5896 5897 5898 5899 5900 5900 5902 5903 5905 5906 5907 5909 5910 5911 5912 5913 5915 5917 5919 5921 5923 5925 5927 5929 5931 5932 5933 5935 5936 5937 5938 5940 5941 5943 5944 5945 5945 5946 5946 5947 5947 5948 5948 5948 5949 5949 5949 5949 5950 5950 5950 5950 5950 5950 5950 5949 5949 5948 5948 5948 5947 5947 5946
5844 5847 5852 5856 5858 5861 5864 5866 5869 5874 5877 5879 5879 5879 5880 5880 5882 5884 5883 5882 5882 5881 5882 5884 5885 5888 5890 5892 5892 5892 5894 5895 5895 5895 5895 5896 5897 5898 5899 5899 5900 5902 5903 5905 5906 5908 5910 5911 5912 5913 5915 5917 5918 5921 5922 5924 5926 5928 5930 5931 5932 5934 5935 5937 5939 5940 5941 5943 5944 5944 5945 5946 5946 5947 5947 5948 5948 5949 5949 5949 5950 5950 5950 5950 5950 5951 5951 5951 5950 5950 5949 5949 5949 5948 5948 5948 5947
5842 5846 5850 5852 5854 5857 5860 5862 5863 5867 5873 5876 5876 5877 5878 5878 5879 5882 5883 5882 5880 5879 5880 5881 5882 5885 5888 5891 5892 5891 5893 5894 5894 5894 5894 5895 5896 5898 5899 5899 5899 5900 5902 5904 5906 5908 5909 5910 5911 5912 5914 5916 5918 5920 5922 5924 5925 5927 5928 5930 5932 5933 5935 5937 5939 5940 5941 5943 5943 5944 5945 5946 5946 5947 5947 5948 5949 5949 5949 5950 5950 5950 5950 5950 5951 5951 5951 5951 5951 5950 5950 5950 5950 5949 5949 5949 5948
5840 5845 5846 5848 5851 5854 5857 5859 5859 5863 5867 5869 5872 5874 5873 5874 5877 5880 5881 5881 5878 5875 5876 5877 5879 5883 5886 5889 5891 5891 5892 5892 5893 5893 5894 5894 5896 5897 5898 5898 5899 5900 5902 5904 5905 5907 5908 5909 5910 5912 5913 5915 5917 5919 5921 5923 5925 5926 5928 5930 5931 5933 5935 5938 5939 5940 5941 5942 5943 5944 5945 5946 5947 5947 5948 5948 5949 5949 5950 5950 5950 5951 5951 5951 5951 5951 5951 5951 5951 5951 5951 5951 5950 5950 5950 5949 5949
5839 5842 5842 5845 5848 5851 5855 5856 5857 5859 5858 5859 5866 5870 5869 5869 5872 5876 5877 5878 5875 5872 5873 5876 5877 5881 5884 5886 5889 5890 5890 5891 5892 5893 5893 5894 5895 5896 5897 5898 5899 5901 5902 5903 5905 5906 5908 5909 5910 5911 5913 5915 5916 5918 5920 5922 5924 5926 5928 5930 5932 5933 5936 5938 5939 5940 5941 5942 5943 5945 5946 5946 5947 5947 5948 5949 5949 5949 5950 5950 5951 5951 5951 5951 5951 5951 5951 5951 5951 5951 5951 5951 5951 5951 5950 5950 5949
5836 5837 5838 5841 5844 5847 5851 5853 5856 5855 5850 5852 5860 5864 5866 5865 5867 5871 5872 5873 5873 5871 5872 5875 5877 5879 5882 5884 5887 5889 5889 5890 5891 5892 5893 5894 5894 5895 5896 5897 5898 5900 5902 5903 5904 5906 5908 5909 5910 5911 5912 5914 5916 5918 5920 5922 5924 5926 5928 5929 5931 5933 5936 5937 5939 5940 5941 5942 5944 5945 5946 5947 5947 5948 5948 5949 5949 5950 5950 5950 5951 5951 5951 5951 5951 5951 5951 5951 5951 5951 5951 5951 5951 5951 5951 5950 5950
5831 5832 5834 5837 5840 5844 5846 5849 5852 5847 5844 5851 5857 5860 5861 5860 5863 5867 5868 5869 5871 5870 5870 5873 5876 5878 5880 5883 5886 5887 5889 5890 5891 5892 5892 5893 5893 5893 5894 5896 5897 5898 5901 5903 5904 5905 5907 5909 5910 5910 5912 5913 5915 5917 5919 5921 5923 5925 5927 5929 5931 5933 5935 5937 5938 5940 5941 5942 5944 5945 5946 5947 5947 5948 5949 5949 5950 5950 5950 5951 5951 5951 5952 5952 5952 5951 5951 5951 5951 5951 5951 5951 5951 5951 5951 5951 5950
5826 5827 5830 5833 5836 5838 5840 5842 5843 5840 5842 5850 5855 5856 5855 5854 5859 5865 5866 5867 5869 5869 5867 5868 5873 5876 5877 5880 5884 5886 5888 5890 5890 5890 5891 5891 5891 5892 5893 5894 5896 5897 5900 5902 5903 5904 5906 5908 5909 5910 5911 5912 5914 5916 5918 5920 5922 5924 5927 5929 5931 5933 5935 5936 5938 5939 5941 5942 5944 5945 5946 5947 5948 5948 5949 5950 5950 5951 5951 5951 5952 5952 5952 5952 5952 5952 5951 5951 5951 5951 5951 5951 5951 5951 5951 5951 5951
5822 5824 5827 5830 5832 5833 5834 5836 5838 5839 5842 5847 5852 5853 5850 5852 5857 5860 5862 5864 5867 5869 5866 5864 5868 5872 5875 5878 5881 5884 5886 5887 5888 5888 5889 5890 5890 5891 5891 5892 5894 5896 5898 5900 5902 5904 5905 5907 5909 5910 5910 5911 5913 5915 5917 5919 5921 5923 5926 5928 5930 5933 5935 5936 5937 5939 5941 5942 5943 5945 5946 5947 5948 5949 5949 5950 5951 5951 5951 5952 5952 5952 5952 5952 5952 5952 5951 5951 5951 5951 5951 5951 5951 5951 5951 5951 5951
5820 5824 5826 5827 5828 5830 5831 5834 5836 5838 5840 5843 5848 5848 5847 5850 5854 5857 5860 5861 5865 5869 5866 5863 5866 5869 5872 5875 5877 5880 5882 5883 5884 5886 5888 5889 5889 5889 5890 5891 5893 5895 5896 5899 5901 5903 5904 5906 5907 5908 5909 5910 5911 5913 5915 5918 5920 5922 5925 5927 5930 5932 5934 5935 5937 5939 5940 5942 5943 5944 5946 5947 5948 5949 5950 5950 5951 5951 5952 5952 5952 5952 5952 5953 5953 5952 5952 5951 5951 5951 5951 5951 5951 5951 5951 5951 5951
5818 5820 5821 5822 5826 5829 5831 5833 5835 5837 5838 5839 5842 5844 5846 5850 5851 5855 5858 5858 5862 5866 5864 5861 5863 5866 5869 5871 5874 5877 5879 5881 5882 5884 5886 5887 5888 5888 5889 5890 5892 5893 5895 5897 5900 5902 5903 5905 5906 5907 5907 5908 5909 5911 5914 5916 5919 5921 5924 5927 5929 5931 5933 5935 5937 5938 5940 5941 5943 5944 5945 5947 5948 5949 5949 5950 5951 5951 5952 5952 5952 5952 5952 5953 5953 5953 5952 5952 5951 5951 5951 5951 5951 5951 5951 5951 5951
5813 5814 5816 5820 5825 5827 5829 5831 5833 5834 5834 5836 5839 5842 5845 5847 5848 5851 5854 5855 5859 5862 5860 5857 5858 5863 5866 5868 5871 5875 5877 5879 5881 5883 5885 5886 5886 5887 5887 5889 5890 5892 5894 5896 5898 5900 5902 5904 5905 5906 5907 5907 5908 5909 5911 5914 5917 5920 5923 5926 5928 5930 5932 5934 5936 5937 5939 5941 5942 5944 5945 5946 5947 5948 5949 5950 5950 5951 5951 5952 5952 5952 5952 5952 5952 5952 5952 5952 5951 5951 5951 5951 5950 5951 5951 5950 5950
5809 5810 5814 5819 5822 5824 5826 5827 5828 5830 5831 5834 5838 5840 5841 5842 5844 5848 5851 5851 5854 5857 5858 5854 5853 5857 5862 5866 5869 5873 5875 5878 5879 5881 5883 5884 5884 5885 5886 5887 5888 5890 5892 5894 5897 5899 5900 5902 5904 5906 5907 5907 5907 5908 5910 5913 5916 5919 5922 5925 5927 5929 5931 5933 5935 5937 5938 5940 5942 5943 5944 5946 5947 5948 5948 5949 5950 5950 5951 5951 5952 5952 5952 5952 5952 5952 5951 5952 5951 5951 5951 5950 5950 5950 5950 5950 5950
5805 5808 5812 5815 5816 5818 5820 5822 5824 5827 5829 5833 5836 5837 5837 5838 5841 5846 5848 5849 5850 5852 5854 5853 5849 5851 5858 5863 5867 5871 5874 5876 5878 5879 5880 5882 5882 5883 5885 5886 5887 5889 5890 5893 5895 5897 5899 5901 5903 5905 5907 5907 5907 5907 5909 5912 5914 5917 5920 5923 5926 5928 5930 5932 5934 5936 5938 5939 5941 5942 5943 5945 5946 5947 5948 5948 5949 5950 5950 5950 5951 5951 5951 5951 5951 5951 5951 5951 5951 5950 5950 5950 5949 5949 5949 5949 5949
5801 5803 5805 5809 5812 5815 5817 5819 5823 5826 5828 5830 5832 5833 5834 5835 5839 5843 5844 5846 5847 5848 5849 5850 5848 5850 5855 5861 5864 5868 5872 5874 5876 5876 5878 5879 5881 5882 5884 5885 5887 5888 5889 5892 5894 5896 5898 5900 5902 5904 5906 5906 5907 5908 5909 5911 5914 5916 5919 5922 5925 5927 5929 5931 5933 5935 5937 5938 5939 5941 5942 5944 5945 5946 5947 5947 5948 5949 5949 5949 5949 5950 5950 5950 5950 5950 5950 5950 5949 5949 5949 5949 5949 5948 5948 5948 5949
5796 5797 5798 5802 5807 5811 5814 5817 5820 5824 5826 5828 5830 5831 5832 5835 5837 5839 5840 5843 5845 5846 5847 5847 5846 5848 5853 5858 5862 5866 5869 5872 5873 5873 5875 5877 5878 5880 5882 5884 5885 5887 5888 5891 5893 5895 5897 5899 5901 5904 5905 5906 5906 5907 5909 5911 5913 5915 5918 5921 5923 5926 5928 5930 5932 5934 5935 5937 5938 5940 5941 5942 5943 5944 5945 5946 5947 5947 5948 5948 5948 5948 5948 5949 5949 5949 5949 5949 5948 5948 5948 5948 5948 5947 5947 5947 5948
5793 5795 5796 5799 5803 5808 5810 5812 5816 5821 5824 5826 5828 5830 5832 5834 5836 5836 5837 5840 5843 5844 5845 5845 5844 5846 5851 5855 5859 5862 5866 5869 5870 5871 5873 5874 5876 5878 5880 5882 5883 5885 5888 5890 5892 5894 5896 5898 5901 5903 5904 5905 5905 5906 5907 5909 5912 5914 5917 5919 5921 5924 5926 5928 5930 5932 5934 5935 5937 5938 5939 5941 5942 5943 5944 5944 5945 5945 5946 5947 5947 5947 5947 5947 5947 5947 5947 5948 5947 5947 5947 5947 5947 5947 5946 5946 5946